Погода в Раздолье

Россия / Курская область     51°45′15″N   37°59′24″E
темп.,
°C
ветер,
м/с
пор.,
м/с
влажн.,
%
обл.,
%
осадки,
мм/ч
давл.,
гПа
погр.,
м
3 марта, ср
ср300:000ссз61098100 0.6 1013606
03:00−1ссз7139384 0.9 1014618
06:00−2ссз6149196 0.0 1015723
09:00−4ссз7138879 0.0 1018756
12:00−3ссз7108340 0.0 1019852
15:00−1сз598325 0.0 1020815
18:00−3з4109126 0.0 1020294
21:00−2з6139227 0.0 1020403
4 марта, чт
чт400:00−1з6129186 0.0 1018634
03:00−3зюз6129374 0.0 1017322
06:00−3зюз6139210 0.0 1015306
09:00−1зюз715875 0.0 1013467
12:00+1зюз815810 0.0 1010662
15:00+2юз716830 0.0 1008689
18:00+2зюз7168433 0.0 1005678
21:00+2зюз7159267 0.0 1004564
5 марта, пт
пт500:00+2зюз61396100 0.1 1003550
03:00+1з61398100 0.4 1003683
06:000з7148890 0.1 1004589
09:000з6109591 0.1 1006682
12:000сз4696100 0.6 1008395
15:00−1с4686100 0.8 1010488
18:00−2ссв4684100 0.0 1010606
21:00−3ссв4685100 0.0 1012431
6 марта, сб
сб600:00−4с368799 0.0 1014315
03:00−5с358750 0.0 1015194
06:00−6ссз249389 0.0 1016151
09:00−6ссз248655 0.0 1017202
12:00−4зсз23720 0.0 1017520
15:00−3з237325 0.1 1017724
18:00−4зсз367483 0.3 1017439
21:00−5сз238989 0.4 1018238
7 марта, вс
вс700:00−7сз489322 0.0 1019389
03:00−7з379026 0.0 1019275
06:00−7юз612750 0.0 1017463
09:00−5юз9156534 0.0 1015800
12:00−2юз111761100 0.0 10121137
15:00−1зюз11186099 0.0 10091287
18:00−1зюз9177199 0.0 10061220
21:00−1зюз8168097 0.0 1005997